Air Resources Laboratory banner image
Air Resources Laboratory web site National Oceanic and Atmospheric Administration (NOAA)

nc zone


SCZ050-WAZ558-NCZ071-TXZ119-213-PAZ071-DCZ001-FLZ074-172-MI076-
NYZ176-178-MAZ016-IL014-TNZ027-NJZ106-GAZ044-MD014-131400-

...Gateway Observations for Charleston International...

CITY           SKY/WX    TMP DP  RH WIND       PRES   REMARKS
Chas Airport   CLEAR     35  24  64 NW7       30.05R WCI  29
Seattle        PTCLDY    38  33  82 E8        30.40F WCI  32
Charlotte      CLEAR     27  10  49 CALM      29.98R
Dallas DFW     PTCLDY    34  27  75 S7        30.05S WCI  28
Dallas Love    PTCLDY    41  29  62 S3        30.07S
Philladelphia  PTCLDY    23   4  44 W18G29    29.69R WCI   9
Wash National  CLEAR     23   0  36 W13G22    29.86R WCI  11
Baltimore      PTCLDY    21   3  45 W20G33    29.79S WCI   6
Miami          MOSUNNY   56  43  61 N6        30.12R
Detroit        CLOUDY    18  11  74 S9        29.83F WCI   7
Newark         PTCLDY    21   5  50 W18G29    29.56R WCI   6
Laguardia      PTCLDY    22   7  52 W18G31    29.54R WCI   7
J F K          PTCLDY    21   5  50 W25G36    29.56R WCI   4
Boston Logan   PTCLDY    22  11  62 W23G30    29.26S WCI   6
Ft. Lauderdale SUNNY     53  41  63 NW6       30.10R
Chicago O'Hare CLOUDY    26  12  55 S12       29.62F WCI  16
Chicago Midway CLOUDY    27  11  51 S12       29.65F WCI  17
Houston Bush   CLOUDY    34  32  92 CALM      30.18R
Houston Hobby  CLOUDY    36  34  92 CALM      30.19R
Nashville      CLOUDY    22  13  68 S6        30.03F WCI  14
Atlanta        CLEAR     28  11  48 W5        30.05R WCI  23


GAZ044-118-TXZ119-213-NCZ071-DCZ001-MDZ014-506-PAZ021-071-NJZ106-
NYZ176-178-MAZ106-OHZ011-021-055-MIZ076-KYZ091-ILZ014-INZ047-
MNZ060-ONZ431-131400-

...Gateway Observations for Savannah International...

CITY           SKY/WX    TMP DP  RH WIND       PRES   REMARKS
Savannah Arpt  CLEAR     36  19  50 NW8       30.08R WCI  30
Atlanta        CLEAR     28  11  48 W5        30.05R WCI  23
Charlotte      CLEAR     27  10  49 CALM      29.98R
Dallas DFW     PTCLDY    34  27  75 S7        30.05S WCI  28
Houston Bush   CLOUDY    34  32  92 CALM      30.18R
Wash National  CLEAR     23   0  36 W13G22    29.86R WCI  11
Wash Dulles    PTCLDY    20   1  43 W20G30    29.85R WCI   4
Baltimore      PTCLDY    21   3  45 W20G33    29.79S WCI   6
Philadelphia   PTCLDY    23   4  44 W18G29    29.69R WCI   9
Newark         PTCLDY    21   5  50 W18G29    29.56R WCI   6
Laguardia      PTCLDY    22   7  52 W18G31    29.54R WCI   7
J F K          PTCLDY    21   5  50 W25G36    29.56R WCI   4
Boston         PTCLDY    22  11  62 W23G30    29.26S WCI   6
Pittsburg      CLOUDY    17   5  59 SW10      29.83R WCI   5
Akron          CLOUDY    16   5  62 SW8       29.82F WCI   5
Cleveland      CLOUDY    18  10  71 SW8       29.86F WCI   8
Cincinnati     CLOUDY    20  12  71 S10       29.90F WCI   9
Columbus       CLOUDY    17  11  78 SW6       29.92F WCI   8
Detroit        CLOUDY    18  11  74 S9        29.83F WCI   7
Chicago O'Hare CLOUDY    26  12  55 S12       29.62F WCI  16
Minneapolis    CLOUDY    27  25  92 N8        29.36S WCI  19
Indianapolis   CLOUDY    23   8  52 S9        29.83F WCI  13
Toronto Canada PTCLDY    10   1  67 NW15      29.70R WCI  -6